This is the latest recevied weather packets stored in our database for station/object SV1RVP-13. If no packets are shown the sender has not sent any weather packets the latest 10 day(s).
| Time | Temp. | Humidity | Pressure | Rain* | Wind** | Luminosity | Snow |
|---|---|---|---|---|---|---|---|
| 1777828127 | 13.33° C | 55% | 1017.1 hPa | 1.52 mm | - | - | - |
| 1777827512 | 13.89° C | 54% | 1016.8 hPa | 1.52 mm | - | - | - |
| 1777826910 | 13.89° C | 52% | 1016.7 hPa | 1.52 mm | - | - | - |
| 1777826332 | 13.89° C | 52% | 1016.5 hPa | 1.52 mm | - | - | - |
| 1777825720 | 13.89° C | 50% | 1016.3 hPa | 1.52 mm | - | - | - |
| 1777825119 | 13.89° C | 50% | 1016.3 hPa | 1.52 mm | - | - | - |
| 1777824520 | 13.89° C | 51% | 1016.3 hPa | 1.52 mm | - | - | - |
| 1777823932 | 13.89° C | 50% | 1016.2 hPa | 1.52 mm | - | - | - |
| 1777823320 | 14.44° C | 50% | 1016.3 hPa | 1.52 mm | - | - | - |
| 1777822727 | 14.44° C | 49% | 1016.3 hPa | 1.52 mm | - | - | - |
| 1777822118 | 14.44° C | 49% | 1016.1 hPa | 1.52 mm | - | - | - |
| 1777821516 | 14.44° C | 50% | 1016 hPa | 1.52 mm | - | - | - |
| 1777820914 | 15° C | 50% | 1016 hPa | 1.52 mm | - | - | - |
| 1777820325 | 14.44° C | 49% | 1015.9 hPa | 1.52 mm | - | - | - |
| 1777819715 | 15° C | 50% | 1016 hPa | 1.52 mm | - | - | - |
| 1777819117 | 15° C | 48% | 1015.8 hPa | 1.52 mm | - | - | - |
| 1777818509 | 15° C | 47% | 1015.7 hPa | 1.52 mm | - | - | - |
| 1777817909 | 15° C | 46% | 1015.7 hPa | 1.52 mm | - | - | - |
| 1777817310 | 14.44° C | 50% | 1015.7 hPa | 1.52 mm | - | - | - |
| 1777816719 | 15° C | 49% | 1015.9 hPa | 1.52 mm | - | - | - |
| 1777816112 | 15° C | 51% | 1015.8 hPa | 1.52 mm | - | - | - |
| 1777815512 | 14.44° C | 50% | 1015.8 hPa | 1.52 mm | - | - | - |
| 1777814933 | 15° C | 50% | 1015.8 hPa | 1.52 mm | - | - | - |
| 1777814324 | 15° C | 50% | 1015.8 hPa | 1.52 mm | - | - | - |
| 1777813724 | 15° C | 50% | 1015.9 hPa | 1.52 mm | - | - | - |
* Rain since midnight (hover to see other rain measurements)
** Current wind speed in m/s (hover to see current wind gust speed)